Overview Statistics Trail Chart Weather Telemetry Raw packets
 

This is the latest recevied weather packets stored in our database for station/object K7DC. If no packets are shown the sender has not sent any weather packets the latest 10 day(s).

<< 28 29 30 31 32 33 34 >>
Time Temp. Humidity Pressure Rain* Wind** Luminosity Snow
1788443596 24.44° C 74% 1017.1 hPa 0 mm - 39 W/m² -
1788443295 24.44° C 72% 1017 hPa 0 mm - 35 W/m² -
1788442990 24.44° C 72% 1017.1 hPa 0 mm - 29 W/m² -
1788442688 24.44° C 71% 1017 hPa 0 mm - 24 W/m² -
1788442384 24.44° C 71% 1016.8 hPa 0 mm - 21 W/m² -
1788442084 24.44° C 71% 1016.6 hPa 0 mm - 17 W/m² -
1788441780 24.44° C 71% 1016.5 hPa 0 mm - 14 W/m² -
1788441474 25° C 71% 1016.6 hPa 0 mm - 10 W/m² -
1788441173 25° C 71% 1016.4 hPa 0 mm - 7 W/m² -
1788440869 25° C 70% 1016.7 hPa 0 mm - 5 W/m² -
1788440563 25° C 69% 1016.3 hPa 0 mm - 3 W/m² -
1788440262 25° C 70% 1016.4 hPa 0 mm - 2 W/m² -
1788439957 25° C 69% 1016.1 hPa 0 mm - 1 W/m² -
1788439657 25° C 69% 1016.1 hPa 0 mm - 0 W/m² -
1788439352 25° C 69% 1016.3 hPa 0 mm - 0 W/m² -
1788439051 25° C 68% 1016.3 hPa 0 mm - 0 W/m² -
1788438750 25° C 68% 1016 hPa 0 mm - 0 W/m² -
1788438449 25° C 68% 1016.1 hPa 0 mm - 0 W/m² -
1788438144 25.56° C 67% 1016 hPa 0 mm - 0 W/m² -
1788437842 25.56° C 67% 1015.8 hPa 0 mm - 0 W/m² -
1788437539 25.56° C 66% 1015.8 hPa 0 mm - 0 W/m² -
1788437238 25.56° C 66% 1015.9 hPa 0 mm - 0 W/m² -
1788436932 25.56° C 65% 1015.8 hPa 0 mm - 0 W/m² -
1788436632 25.56° C 65% 1015.8 hPa 0 mm - 0 W/m² -
1788436327 25.56° C 66% 1015.8 hPa 0 mm - 0 W/m² -

* Rain latest hour (hover to see other rain measurements)
** Current wind speed in m/s (hover to see current wind gust speed)